Regional Weather Roundup
Issued by NWS State College, PA

Home | Current Version | Previous Version | Text Only | Print | Product List | Glossary On
Versions: 1 2 3 4 5 6 7 8 9 10 11 12 13 14 15 16 17 18 19 20 21 22 23 24 25 26 27 28 29 30 31 32 33 34 35 36 37 38 39 40 41 42 43 44 45 46 47 48 49 50
000
ASUS41 KCTP 180303
RWRCTP

REGIONAL WEATHER ROUNDUP
NATIONAL WEATHER SERVICE STATE COLLEGE PA
1100 PM EDT WED SEP 17 2014

Note: "fair" indicates few or no clouds below 12,000 feet with no
significant weather and/or obstructions to visibility.

* = STATION THAT DOES NOT REPORT PRECIPITATION /E.G. RAIN...SNOW...ETC/
    THUNDER OR FOG.

PAZ002>004-007>009-013>016-020>023-029>032-180400-
WESTERN PENNSYLVANIA

CITY           SKY/WX    TMP DP  RH WIND       PRES   REMARKS
ERIE           CLEAR     54  48  80 S6        29.99F
MEADVILLE      CLEAR     51  47  86 CALM      30.01S
FRANKLIN*      CLEAR     48  45  87 CALM      30.03R
NEW CASTLE     FAIR      49  48  96 CALM      30.02R
BEAVER COUNTY  NOT AVBL
BUTLER*        MOCLDY    52  48  87 CALM      30.02R
PITTSBURGH INT NOT AVBL
PITTSBURGH     MOCLDY    59  47  64 N5        29.99S
INDIANA*       MOCLDY    50  50 100 CALM      30.03F
LATROBE        CLEAR     52  52 100 CALM      30.00S
WASHINGTON CO* CLEAR     48  46  93 CALM      30.00S
$$

PAZ004>006-010>012-017>019-024>028-033>037-041-042-045-046-049>053-180400-
CENTRAL PENNSYLVANIA

CITY           SKY/WX    TMP DP  RH WIND       PRES   REMARKS
BRADFORD       CLEAR     45  42  89 CALM      30.01S
DUBOIS         CLEAR     50  46  86 CALM      30.00S
CLEARFIELD     CLEAR     48  46  93 CALM      30.01R
JOHNSTOWN      CLEAR     54  45  71 CALM      30.01S
ALTOONA        MOCLDY    53  51  93 CALM      30.00S
STATE COLLEGE  MOCLDY    55  49  80 CALM      30.00R
WILLIAMSPORT   MOCLDY    54  49  83 CALM      29.98R
SELINSGROVE    CLEAR     49  46  90 CALM      30.00R
FT INDIANTOWN  CLEAR     51  50  99 NE2       29.99S
CAPITAL CITY   CLEAR     55  50  83 CALM      29.99R
HARRISBURG     PTCLDY    58  51  78 CALM      29.98R
YORK           CLEAR     48  45  89 CALM      29.99R
$$

PAZ038>040-043-044-047-048-054-055-060>062-067>071-180400-
EASTERN PENNSYLVANIA

CITY           SKY/WX    TMP DP  RH WIND       PRES   REMARKS
SCRANTON       CLEAR     51  43  74 E8        30.00R
MOUNT POCONO   CLEAR     43  32  65 CALM      30.01S
ALLENTOWN      CLEAR     51  47  86 N3        29.99S
QUAKERTOWN*    CLEAR     50  48  93 CALM      30.00S
READING        CLEAR     56  49  77 CALM      29.99R
LANCASTER      CLEAR     55  49  80 E3        29.99S
COATESVILLE    CLEAR     55  54  94 CALM      30.01R
POTTSTOWN      CLEAR     53  49  86 CALM      30.01R
BLUE BELL      CLEAR     52  50  93 CALM      29.98S
DOYLESTOWN     CLEAR     52  49  89 CALM      29.99R
WILLOW GROVE   NOT AVBL
NORTH PHILA    CLEAR     62  52  69 CALM      30.01R
PHILADELPHIA   PTCLDY    62  53  72 S3        29.99S
$$



USA.gov is the U.S. government's official web portal to all federal, state and local government web resources and services.